Location: East Brentwood
(40.7920°N, 73.2312°W)
Time: 22:54:24
(UTC+00:00)

Daily predictions for brighter satellites

Satellite Brightness Start Highest point End
(mag) Time Altitude Azimuth Time Altitude Azimuth Time Altitude Azimuth
Cosmos 2369 3.7 22:56:57 10° SSW 23:02:33 72° ESE 23:08:13 10° NNE
FALCON 9 DEB 2.9 23:02:51 10° SW 23:06:01 87° NW 23:09:13 10° NE
IRIS 4.0 23:03:42 10° WSW 23:06:54 66° SSE 23:09:19 10° E
SeaSat 1 2.6 23:02:19 10° NE 23:07:09 53° ESE 23:11:57 10° S
Feng Yun 1-1 Rocket 4.4 23:01:43 10° SSE 23:07:30 80° ENE 23:13:25 10° NNW
Cosmos 1743 Rocket 3.5 23:04:32 10° S 23:08:51 79° E 23:13:16 10° N
Cosmos 1805 Rocket 4.0 23:05:54 10° SSE 23:09:57 40° E 23:14:03 10° NNE
Cosmos 1862 3.6 23:09:17 10° SSW 23:13:16 73° W 23:17:19 10° N
USA 234 3.3 23:06:53 10° NE 23:13:27 73° SE 23:19:58 10° SW
H-2A R/B 3.8 23:09:58 10° N 23:13:41 34° WNW 23:17:22 10° SW
Cosmos 2263 Rocket 3.3 23:10:04 10° N 23:14:26 23° NE 23:18:47 10° ESE
Meteor 1-10 Rocket 4.2 23:08:56 10° N 23:14:43 77° E 23:20:19 10° SSE
Cosmos 1689 Rocket 2.8 23:13:07 10° NE 23:15:42 29° E 23:18:16 10° SSE
Cosmos 1271 Rocket 4.2 23:15:22 10° NNE 23:17:48 16° ENE 23:20:14 10° ESE
CZ-2D R/B 3.6 23:15:43 10° S 23:19:29 70° WSW 23:23:17 10° NNW
Abrixas rocket 3.9 23:18:37 10° SSE 23:19:34 12° SE 23:20:26 10° ESE
Cosmos 2228 Rocket 3.1 23:17:59 10° N 23:22:30 66° E 23:26:56 10° SSE
Cosmos 2227 Rocket 3.1 23:17:22 10° NNW 23:22:52 53° WSW 23:28:20 10° S
Cosmos 1812 3.2 23:20:01 10° NNW 23:23:50 65° W 23:27:36 10° S
Cosmos 1850 Rocket 3.9 23:19:36 10° NNW 23:24:49 81° ENE 23:30:00 10° SSE
Cosmos 2074 Rocket 4.4 23:19:11 10° SSE 23:24:56 39° E 23:30:39 10° NNE
BREEZE-M DEB (TANK) 3.2 23:23:26 10° WNW 23:25:17 23° NNW 23:27:43 10° NE
H-2A R/B 2.1 23:21:23 10° SSE 23:26:43 67° ENE 23:32:08 10° N
Cosmos 2084 3.7 23:25:48 10° SW 23:29:58 68° NW 23:34:15 10° NNE
ARGOS 3.4 23:25:03 10° SE 23:30:14 49° ENE 23:35:28 10° N
FALCON 9 DEB 3.5 23:27:35 10° WSW 23:30:44 56° NW 23:33:47 11° NE
Cosmos 1666 Rocket 4.2 23:28:05 10° SSE 23:31:54 31° E 23:35:46 10° NNE
Cosmos 1242 Rocket 3.4 23:28:41 10° NNW 23:32:09 52° W 23:35:37 10° S
Meteor 1-27 Rocket 3.6 23:28:53 10° N 23:34:24 69° E 23:39:53 10° SSE
Cosmos 2278 3.7 23:29:12 10° SSW 23:34:50 82° ESE 23:40:34 10° NNE
Cosmos 2184 Rocket 4.2 23:31:56 10° SSE 23:37:45 47° E 23:43:37 10° NNE
FALCON 9 DEB 4.1 23:35:56 10° WSW 23:38:55 39° NNW 23:41:40 12° NE
Aureole 1 Rocket 4.3 23:32:28 10° NNW 23:39:45 73° WSW 23:45:18 10° S
Cosmos 2297 Rocket 4.4 23:35:21 10° NW 23:40:09 29° WSW 23:44:57 10° SSW
COSMOS 2455 2.9 23:36:37 10° NNW 23:42:35 59° ENE 23:48:29 10° SE
CSL-04 Debris 4.2 23:38:49 10° SSE 23:44:06 58° ENE 23:49:27 10° N
Helios 1A Rocket 2.9 23:40:24 10° SSE 23:44:23 55° ENE 23:48:22 10° N
CZ-2C R/B 2.8 23:39:05 10° NNE 23:44:29 52° E 23:49:45 10° S
CZ-2C R/B 4.4 23:39:11 10° S 23:44:46 49° W 23:50:18 10° NNW
Cosmos 1331 Rocket 4.0 23:39:32 10° SSW 23:44:50 90° WNW 23:50:08 10° NNE
YAOGAN 1 2.6 23:42:17 10° S 23:46:37 82° WSW 23:50:57 10° NNW
SL-4 R/B 3.5 23:44:24 10° W 23:47:24 24° NNW 23:50:03 11° NNE
Okean-O 2.7 23:44:47 10° S 23:49:13 81° WSW 23:53:40 10° NNW
Cosmos 220 Rocket 4.2 23:45:03 10° SSW 23:49:13 70° WNW 23:53:28 10° NNE
CZ-4B R/B 4.1 23:48:46 10° NNW 23:50:59 19° WNW 23:53:13 10° WSW
CSL-04 Rocket 3.7 23:45:44 10° SSE 23:51:12 63° ENE 23:56:41 10° N
Gbstr 26 Del rocket 3.4 23:48:43 10° WSW 23:52:59 72° NNW 23:57:10 16° NE
Lacrosse 5 rocket 1.4 23:50:28 10° NW 23:54:52 82° SW 23:58:02 17° SE
Cosmos 1437 2.5 23:52:40 10° N 23:55:31 53° E 23:56:40 30° SE
